IRIDIUM 172

Last updated on Tue Sep 22 2026 00:03:21 GMT+0000 (Coordinated Universal Time)

1 43927U 19002F 26264.39114550 .00000130 00000+0 39305-4 0 9992 2 43927 86.3967 313.3778 0002295 94.8747 265.2711 14.34217620402757
UTC large
Height (km)
Speed (km/s)
/
Latitude / Longitude
Inclination (degrees)
Orbital Period (minutes)
Azimuth
Elevation
Range (km)
Doppler Factor

Next 0 passes for location: London (51.5072 / 0.1276)

No passes found over London.
IRIDIUM 172